H1 CPF  2 gal 2020 12 10 09 345 1 galileo214
H2 1606904 7214 41862 2020 12 10 00 14 42 2020 12 15 00 14 42 900 1 1 0 0 0 1
H9                                                                                
10 0 59195  38682.000000  0     -13532031.836     -16307794.630     -20673031.659 
10 0 59195  39582.000000  0     -13479065.324     -18104752.705     -19155861.473 
10 0 59195  40482.000000  0     -13542822.419     -19753591.224     -17400544.746 
10 0 59195  41382.000000  0     -13701504.941     -21226958.523     -15428889.335 
10 0 59195  42282.000000  0     -13929244.961     -22502060.695     -13265394.937 
10 0 59195  43182.000000  0     -14196958.332     -23561326.765     -10936949.668 
10 0 59195  44082.000000  0     -14473301.344     -24392912.607      -8472496.728 
10 0 59195  44982.000000  0     -14725700.510     -24991027.822      -5902675.224 
10 0 59195  45882.000000  0     -14921423.148     -25356075.336      -3259439.592 
10 0 59195  46782.000000  0     -15028655.124     -25494599.344       -575662.324 
10 0 59195  47682.000000  0     -15017551.859     -25419043.203       2115275.040 
10 0 59195  48582.000000  0     -14861229.520     -25147324.881       4779897.528 
10 0 59195  49482.000000  0     -14536665.151     -24702243.280       7385053.750 
10 0 59195  50382.000000  0     -14025477.378     -24110734.067       9898329.038 
10 0 59195  51282.000000  0     -13314563.032     -23402998.420      12288449.518 
10 0 59195  52182.000000  0     -12396569.559     -22611532.037      14525672.003 
10 0 59195  53082.000000  0     -11270188.265     -21770084.950      16582154.808 
10 0 59195  53982.000000  0      -9940259.051     -20912584.823      18432304.818 
10 0 59195  54882.000000  0      -8417683.216     -20072057.560      20053096.457 
10 0 59195  55782.000000  0      -6719146.937     -19279579.131      21424358.582 
10 0 59195  56682.000000  0      -4866663.989     -18563291.524      22529025.728 
10 0 59195  57582.000000  0      -2886951.887     -17947513.706      23353350.595 
10 0 59195  58482.000000  0       -810660.909     -17451975.468      23887075.148 
10 0 59195  59382.000000  0       1328519.985     -17091198.195      24123558.243 
10 0 59195  60282.000000  0       3494852.447     -16874041.937      24059858.205 
10 0 59195  61182.000000  0       5651602.396     -16803432.982      23696769.354 
10 0 59195  62082.000000  0       7762125.166     -16876280.438      23038812.045 
10 0 59195  62982.000000  0       9790948.294     -17083584.413      22094176.336 
10 0 59195  63882.000000  0      11704818.160     -17410732.387      20874619.982 
10 0 59195  64782.000000  0      13473677.847     -17837974.442      19395322.022 
10 0 59195  65682.000000  0      15071545.684     -18341062.427      17674693.727 
10 0 59195  66582.000000  0      16477267.102     -18892032.982      15734149.280 
10 0 59195  67482.000000  0      17675116.329     -19460109.818      13597838.985 
10 0 59195  68382.000000  0      18655229.205     -20012696.901      11292348.351 
10 0 59195  69282.000000  0      19413853.656     -20516431.332       8846366.766 
10 0 59195  70182.000000  0      19953410.083     -20938262.829       6290329.926 
10 0 59195  71082.000000  0      20282359.909     -21246525.857       3656040.496 
10 0 59195  71982.000000  0      20414886.534     -21411970.713        976271.756 
10 0 59195  72882.000000  0      20370398.822     -21408721.128      -1715640.763 
10 0 59195  73782.000000  0      20172872.853     -21215128.283      -4386214.511 
10 0 59195  74682.000000  0      19850052.714     -20814494.396      -7002236.802 
10 0 59195  75582.000000  0      19432535.530     -20195643.123      -9531178.097 
10 0 59195  76482.000000  0      18952769.551     -19353318.874     -11941596.509 
10 0 59195  77382.000000  0      18443996.830     -18288402.483     -14203528.472 
10 0 59195  78282.000000  0      17939173.705     -17007936.467     -16288860.728 
10 0 59195  79182.000000  0      17469903.010     -15524959.062     -18171679.014 
10 0 59195  80082.000000  0      17065411.487     -13858152.222     -19828589.185 
10 0 59195  80982.000000  0      16751604.458     -12031314.554     -21239006.833 
10 0 59195  81882.000000  0      16550227.351     -10072675.654     -22385411.905 
10 0 59195  82782.000000  0      16478160.319      -8014073.196     -23253565.245 
10 0 59195  83682.000000  0      16546867.984      -5890018.446     -23832684.466 
10 0 59195  84582.000000  0      16762021.528      -3736679.255     -24115577.067 
10 0 59195  85482.000000  0      17123304.905      -1590812.210     -24098729.203 
10 0 59195  86382.000000  0      17624411.264        511322.866     -23782349.069 
10 0 59196    882.000000  0      18253229.695       2535032.305     -23170364.383 
10 0 59196   1782.000000  0      18992216.503       4448208.635     -22270373.984 
10 0 59196   2682.000000  0      19818939.445       6222269.560     -21093554.135 
10 0 59196   3582.000000  0      20706777.979       7832986.673     -19654520.616 
10 0 59196   4482.000000  0      21625757.699       9261178.142     -17971148.246 
10 0 59196   5382.000000  0      22543492.895      10493243.794     -16064349.991 
10 0 59196   6282.000000  0      23426207.825      11521525.970     -13957818.280 
10 0 59196   7182.000000  0      24239804.742      12344484.898     -11677731.676 
10 0 59196   8082.000000  0      24950945.274      12966683.155      -9252430.434 
10 0 59196   8982.000000  0      25528111.250      13398579.741      -6712064.925 
10 0 59196   9882.000000  0      25942611.712      13656140.238      -4088221.245 
10 0 59196  10782.000000  0      26169504.474      13760275.314      -1413528.652 
10 0 59196  11682.000000  0      26188403.255      13736125.224       1278746.306 
10 0 59196  12582.000000  0      25984144.974      13612212.784       3955113.863 
10 0 59196  13482.000000  0      25547296.162      13419491.477       6582278.136 
10 0 59196  14382.000000  0      24874482.499      13190318.634       9127551.996 
10 0 59196  15282.000000  0      23968531.012      12957385.996      11559264.472 
10 0 59196  16182.000000  0      22838420.377      12752641.344      13847155.572 
10 0 59196  17082.000000  0      21499040.783      12606235.129      15962753.513 
10 0 59196  17982.000000  0      19970770.790      12545525.286      17879729.657 
10 0 59196  18882.000000  0      18278884.384      12594171.551      19574226.667 
10 0 59196  19782.000000  0      16452806.730      12771347.811      21025155.789 
10 0 59196  20682.000000  0      14525241.871      13091097.288      22214459.577 
10 0 59196  21582.000000  0      12531199.660      13561850.860      23127336.766 
10 0 59196  22482.000000  0      10506952.295      14186123.721      23752426.552 
10 0 59196  23382.000000  0       8488953.088      14960399.950      24081949.979 
10 0 59196  24282.000000  0       6512751.217      15875208.690      24111806.722 
10 0 59196  25182.000000  0       4611936.355      16915389.612      23841626.073 
10 0 59196  26082.000000  0       2817146.108      18060539.413      23274771.507 
10 0 59196  26982.000000  0       1155167.222      19285625.425      22418298.781 
10 0 59196  27882.000000  0       -351841.401      20561747.148      21282868.073 
10 0 59196  28782.000000  0      -1686979.693      21857021.921      19882611.253 
10 0 59196  29682.000000  0      -2839071.751      23137566.991      18234955.894 
10 0 59196  30582.000000  0      -3802951.082      24368547.259      16360408.217 
10 0 59196  31482.000000  0      -4579556.943      25515255.863      14282297.625 
10 0 59196  32382.000000  0      -5175838.885      26544193.755      12026486.018 
10 0 59196  33282.000000  0      -5604472.644      27424114.397       9621045.482 
10 0 59196  34182.000000  0      -5883396.423      28127000.844       7095908.396 
10 0 59196  35082.000000  0      -6035182.253      28628944.529       4482494.335 
10 0 59196  35982.000000  0      -6086262.304      28910898.211       1813318.443 
10 0 59196  36882.000000  0      -6066034.584      28959279.437       -878413.765 
10 0 59196  37782.000000  0      -6005876.209      28766405.626      -3559220.101 
10 0 59196  38682.000000  0      -5938095.384      28330747.119      -6195758.663 
10 0 59196  39582.000000  0      -5894855.071      27656990.308      -8755242.829 
10 0 59196  40482.000000  0      -5907102.264      26755908.892     -11205849.061 
10 0 59196  41382.000000  0      -6003536.535      25644047.337     -13517112.429 
10 0 59196  42282.000000  0      -6209650.280      24343226.513     -15660304.929 
10 0 59196  43182.000000  0      -6546870.830      22879887.009     -17608791.895 
10 0 59196  44082.000000  0      -7031831.339      21284290.739     -19338362.146 
10 0 59196  44982.000000  0      -7675793.341      19589605.812     -20827527.793 
10 0 59196  45882.000000  0      -8484239.082      17830903.299     -22057790.099 
10 0 59196  46782.000000  0      -9456646.417      16044097.220     -23013868.156 
10 0 59196  47682.000000  0     -10586453.355      14264860.834     -23683887.649 
10 0 59196  48582.000000  0     -11861213.411      12527553.004     -24059527.456 
10 0 59196  49482.000000  0     -13262936.974      10864188.091     -24136122.340 
10 0 59196  50382.000000  0     -14768608.104       9303481.424     -23912720.520 
10 0 59196  51282.000000  0     -16350860.709       7870000.042     -23392095.437 
10 0 59196  52182.000000  0     -17978793.084       6583445.123     -22580711.585 
10 0 59196  53082.000000  0     -19618895.481       5458088.389     -21488644.800 
10 0 59196  53982.000000  0     -21236061.850       4502380.004     -20129457.943 
10 0 59196  54882.000000  0     -22794654.239       3718740.128     -18520033.458 
10 0 59196  55782.000000  0     -24259586.687       3103540.584     -16680364.787 
10 0 59196  56682.000000  0     -25597394.795       2647277.144     -14633309.133 
99